Header for Extended Forecast Station List Page

Search by: ID | Name | Date | Parm | Value | Avg | % Avg
Sort by: ID | Name | Date | Parm | Value | Avg | % Avg

Enter search or view all records.

Click on id for station plot
#IDNameDateParmValueAvg% Avg
0HWRI1BIG LOST-AT HOWELL RANCH NEAR CHILLY10-12-2021DISCHARGE (KAF)142262
1MACI1BIG LOST-MACKAY RESERVOIR NEAR MACKAY10-12-2021INFLOW (KAF)246386
2HALI1BIG WOOD-AT HAILEY10-12-2021DISCHARGE (KAF)224155
3MAGI1BIG WOOD-MAGIC DAM10-12-2021INFLOW (KAF)82731
4BITM8BITTERROOT-NEAR MISSOULA10-12-2021DISCHARGE (KAF)11923152
5BONM8BLACKFOOT-NEAR BONNER10-12-2021DISCHARGE (KAF)10813779
6BIGI1BOISE-AT GLENWOOD BRIDGE10-12-2021DISCHARGE (KAF)4537123
7LUCI1BOISE-LUCKY PEAK DAM10-12-2021INFLOW (KAF)31MM
8PARI1BOISE-NEAR PARMA10-12-2021DISCHARGE (KAF)17521083
9HOTI1BRUNEAU-NEAR HOT SPRINGS10-12-2021DISCHARGE (KAF)212778
10BULO3BULLY CREEK-BULLY CREEK DAM10-12-2021INFLOW (KAF)32134
11BUDW1BUMPING-BUMPING LAKE DAM10-12-2021INFLOW (KAF)323591
12CHDW1CHELAN-LAKE CHELAN DAM10-12-2021INFLOW (KAF)270158171
13ABOM8CLARK FORK-ABOVE MISSOULA10-12-2021DISCHARGE (KAF)28334981
14DLGM8CLARK FORK-AT DEER LODGE10-12-2021DISCHARGE (KAF)476375
15SRGM8CLARK FORK-AT ST REGIS10-12-2021DISCHARGE (KAF)51176167
16BELM8CLARK FORK-BELOW MISSOULA10-12-2021DISCHARGE (KAF)40258469
17CABI1CLARK FORK-CABINET GORGE DAM10-12-2021INFLOW (KAF)2063363357
18NOXM8CLARK FORK-NOXON RAPIDS DAM10-12-2021INFLOW (KAF)1882348254
19DRMM8CLARK FORK-NR DRUMMOND10-12-2021DISCHARGE (KAF)117MM
20CLUW1CLE ELUM-CLE ELUM LAKE10-12-2021INFLOW (KAF)121101119
21ORFI1CLEARWATER-AT OROFINO10-12-2021DISCHARGE (KAF)31164248
22SPDI1CLEARWATER-AT SPALDING10-12-2021DISCHARGE (KAF)739153348
23COEI1COEUR D ALENE-COEUR D ALENE LAKE10-12-2021INFLOW (KAF)23761738
24CIBW1COLUMBIA-AT INTL BOUNDARY10-12-2021DISCHARGE (KAF)17039MM
25BONO3COLUMBIA-BONNEVILLE DAM10-12-2021INFLOW (KAF)281043548179
26CHJW1COLUMBIA-CHIEF JOSEPH DAM10-12-2021INFLOW (KAF)201052112995
27GCDW1COLUMBIA-GRAND COULEE DAM10-12-2021INFLOW (KAF)1767517380102
28JDAO3COLUMBIA-JOHN DAY DAM10-12-2021INFLOW (KAF)267943010889
29MCDW1COLUMBIA-MCNARY DAM10-12-2021INFLOW (KAF)257202924688
30PRWW1COLUMBIA-PRIEST RAPIDS DAM10-12-2021INFLOW (KAF)2118019935106
31RRHW1COLUMBIA-ROCKY REACH DAM10-12-2021INFLOW (KAF)208222199495
32TDAO3COLUMBIA-THE DALLES DAM10-12-2021INFLOW (KAF)274913346782
33WANW1COLUMBIA-WANAPUM DAM10-12-2021INFLOW (KAF)2118219612108
34WELW1COLUMBIA-WELLS DAM10-12-2021INFLOW (KAF)204102148095
35DEDI1DEADWOOD-NEAR LOWMAN10-12-2021INFLOW (KAF)131967
36MODO3DESCHUTES-AT MOODY NR BIGGS10-12-2021DISCHARGE (KAF)1319136597
37ARDW1ENTIAT-NEAR ARDENVOIR10-12-2021DISCHARGE (KAF)2622118
38CHEI1FALL RIVER-NEAR CHESTER10-12-2021DISCHARGE (KAF)10711295
39CFMM8FLATHEAD-AT COLUMBIA FALLS10-12-2021DISCHARGE (KAF)864119672
40KERM8FLATHEAD-SELI’Š KSANKA QLISPE’ DAM10-12-2021INFLOW (KAF)931150462
41TRYO3GRANDE RONDE-TROY10-12-2021DISCHARGE (KAF)15927957
42REXI1HENRYS FORK-AT REXBURG10-12-2021DISCHARGE (KAF)40043393
43ANTI1HENRYS FORK-AT ST. ANTHONY10-12-2021DISCHARGE (KAF)31334192
44IPDI1HENRYS FORK-ISLAND PARK DAM10-12-2021INFLOW (KAF)8111868
45HODO3HOOD-NEAR TUCKER BRIDGE10-12-2021DISCHARGE (KAF)20621496
46SERO3JOHN DAY-AT SERVICE CK10-12-2021DISCHARGE (KAF)11117564
47KADW1KACHESS-KACHESS DAM10-12-2021INFLOW (KAF)4744107
48LAUW1KETTLE-AT LAURIER10-12-2021DISCHARGE (KAF)8212864
49PITW1KLICKITAT-NEAR PITT10-12-2021DISCHARGE (KAF)23026487
50BFEI1KOOTENAI-AT BONNERS FERRY10-12-2021STAGE (FT)MMM
51LEOI1KOOTENAI-AT LEONIA10-12-2021DISCHARGE (KAF)25351616157
52LYDM8KOOTENAI-LIBBY DAM10-12-2021INFLOW (KAF)76293582
53LWRI1LITTLE WOOD-LITTLE WOOD DAM10-12-2021INFLOW (KAF)101565
54BERO3MALHEUR-AGENCY VALLEY DAM10-12-2021INFLOW (KAF)91562
55WRMO3MALHEUR-WARM SPRINGS DAM10-12-2021INFLOW (KAF)161982
56MYKO3MCKAY CREEK-NEAR PILOT ROCK10-12-2021DISCHARGE (KAF)1714117
57PATW1METHOW-NEAR PATEROS10-12-2021DISCHARGE (KAF)8410084
58WGCM8MF FLATHEAD-NEAR WEST GLACIER10-12-2021DISCHARGE (KAF)5917334
59CLFW1NACHES-NEAR CLIFFDEL10-12-2021DISCHARGE (KAF)8510085
60NACW1NACHES-NEAR NACHES10-12-2021DISCHARGE (KAF)717398
61DWRI1NF CLEARWATER-DWORSHAK DAM10-12-2021INFLOW (KAF)21348644
62FCFM8NF FLATHEAD-NEAR COLUMBIA FALLS10-12-2021DISCHARGE (KAF)12719764
63MONO3NF JOHN DAY-AT MONUMENT10-12-2021DISCHARGE (KAF)539257
64CSDI1NF PAYETTE-CASCADE DAM10-12-2021INFLOW (KAF)679372
65TONW1OKANOGAN-NEAR TONASKET10-12-2021DISCHARGE (KAF)22328279
66OWYO3OWYHEE-OWYHEE DAM10-12-2021INFLOW (KAF)497665
67EMMI1PAYETTE-NEAR EMMETT10-12-2021DISCHARGE (KAF)22334764
68ALFW1PEND OREILLE-ALBENI FALLS DAM10-12-2021INFLOW (KAF)2311422755
69HOPI1PEND OREILLE-PEND OREILLE LAKE NR HOPE10-12-2021LAKE ELEVATION (FT)MMM
70PIHI1PORTNEUF-AT POCATELLO10-12-2021DISCHARGE (KAF)376061
71PRTI1PRIEST-NEAR PRIEST RIVER10-12-2021DISCHARGE (KAF)16223769
72RCCM8ROCK CREEK-NEAR CLINTON10-12-2021DISCHARGE (KAF)475093
73WHBI1SALMON-AT WHITEBIRD10-12-2021DISCHARGE (KAF)705109065
74ARAI1SF BOISE-ANDERSON RANCH DAM10-12-2021INFLOW (KAF)627483
75HHWM8SF FLATHEAD-HUNGRY HORSE DAM10-12-2021INFLOW (KAF)14224658
76PLDI1SF SNAKE-PALISADES DAM10-12-2021INFLOW (KAF)52264781
77SIFI1SNAKE-AB EAGLE ROCK NR IDAHO FALLS10-12-2021DISCHARGE (KAF)52482264
78AFRI1SNAKE-AMERICAN FALLS RESERVOIR10-12-2021INFLOW (KAF)1103146975
79SNAI1SNAKE-AT BLACKFOOT10-12-2021DISCHARGE (KAF)42972359
80MILI1SNAKE-AT MILNER10-12-2021DISCHARGE (KAF)M533M
81WEII1SNAKE-AT WEISER10-12-2021DISCHARGE (KAF)2501360069
82SWAI1SNAKE-BELOW SWAN FALLS10-12-2021DISCHARGE (KAF)1776254870
83BRNI1SNAKE-BROWNLEE DAM10-12-2021INFLOW (KAF)2659369972
84IHDW1SNAKE-ICE HARBOR DAM10-12-2021INFLOW (KAF)4028737555
85JLKW4SNAKE-JACKSON LAKE AT DAM10-12-2021INFLOW (KAF)8311274
86LGSW1SNAKE-LITTLE GOOSE DAM10-12-2021INFLOW (KAF)4001739154
87LGDW1SNAKE-LOWER GRANITE DAM10-12-2021INFLOW (KAF)4002733855
88LMNW1SNAKE-LOWER MONUMENTAL DAM10-12-2021INFLOW (KAF)4028745154
89ALPW4SNAKE-NEAR ALPINE10-12-2021DISCHARGE (KAF)32140180
90ANAW1SNAKE-NEAR ANATONE10-12-2021DISCHARGE (KAF)3261559458
91BFTI1SNAKE-NEAR BLACKFOOT10-12-2021DISCHARGE (KAF)45078058
92HEII1SNAKE-NEAR HEISE10-12-2021DISCHARGE (KAF)31361851
93JKSW4SNAKE-NEAR JACKSON10-12-2021DISCHARGE (KAF)26231683
94SHYI1SNAKE-NEAR SHELLEY10-12-2021DISCHARGE (KAF)51680464
95LLKW1SPOKANE-AT LONGLAKE10-12-2021INFLOW (KAF)524107549
96SPOW1SPOKANE-AT SPOKANE10-12-2021DISCHARGE (KAF)350MM
97SJMI1ST JOE-AT ST MARIES10-12-2021STAGE (FT)MMM
98SATI1ST MARIES-NEAR SANTA10-12-2021DISCHARGE (KAF)123042
99STRM8ST. REGIS-NEAR ST. REGIS10-12-2021DISCHARGE (KAF)173747
100TNAW1TEANAWAY-BELOW FORKS10-12-2021DISCHARGE (KAF)193651
101TEAI1TETON-NEAR ST. ANTHONY10-12-2021DISCHARGE (KAF)9110785
102RILW1TIETON-RIMROCK LAKE NEAR RIMROCK10-12-2021INFLOW (KAF)416562
103PDTO3UMATILLA-AT PENDLETON10-12-2021DISCHARGE (KAF)656995
104GIBO3UMATILLA-NEAR GIBBON10-12-2021DISCHARGE (KAF)253181
105UMAO3UMATILLA-NEAR UMATILLA10-12-2021DISCHARGE (KAF)10372142
106TCHW1WALLA WALLA-NEAR TOUCHET10-12-2021DISCHARGE (KAF)6510264
107WSRI1WEISER-NEAR WEISER10-12-2021DISCHARGE (KAF)306943
108PESW1WENATCHEE-AT PESHASTIN10-12-2021DISCHARGE (KAF)299294102
109UNDW1WHITE SALMON-NEAR UNDERWOOD10-12-2021DISCHARGE (KAF)18522682
110RIDI1WILLOW CREEK-RIRIE DAM10-12-2021INFLOW (KAF)8895
111EASW1YAKIMA-AT EASTON10-12-2021DISCHARGE (KAF)556584
112KIOW1YAKIMA-AT KIONA10-12-2021DISCHARGE (KAF)49167473
113UMTW1YAKIMA-AT UMTANUM10-12-2021DISCHARGE (KAF)20024382
114KEDW1YAKIMA-KEECHELUS LAKE10-12-2021INFLOW (KAF)5050100
115PARW1YAKIMA-NEAR PARKER10-12-2021DISCHARGE (KAF)33143876